Time,TemperatureF,DewpointF,PressureIn,WindDirection,WindDirectionDegrees,WindSpeedMPH,WindSpeedGustMPH,Humidity,HourlyPrecipIn,Conditions,Clouds,dailyrainin,SoftwareType,DateUTC
2013-06-13 00:01:00,75.0,71.0,30.03,SW,222,2.0,4.0,89,-99.99,,,-99.99,,2013-06-13 04:01:00,
2013-06-13 00:12:00,75.0,71.0,30.03,SW,222,2.0,4.0,89,-99.99,,,-99.99,,2013-06-13 04:12:00,
2013-06-13 00:22:00,74.0,71.0,30.03,SSE,152,3.0,5.0,89,-99.99,,,-99.99,,2013-06-13 04:22:00,
2013-06-13 00:32:00,74.0,71.0,30.03,SSE,152,3.0,5.0,89,-99.99,,,-99.99,,2013-06-13 04:32:00,
2013-06-13 00:43:00,73.0,70.0,30.03,SSE,153,4.0,6.0,89,-99.99,,,-99.99,,2013-06-13 04:43:00,
2013-06-13 00:54:00,74.0,70.0,30.03,South,172,2.0,4.0,89,-99.99,,,-99.99,,2013-06-13 04:54:00,
2013-06-13 01:02:00,74.0,70.0,30.03,South,172,2.0,4.0,89,-99.99,,,-99.99,,2013-06-13 05:02:00,
2013-06-13 01:12:00,73.0,70.0,30.03,SW,233,3.0,4.0,89,-99.99,,,-99.99,,2013-06-13 05:12:00,
2013-06-13 01:24:00,73.0,70.0,30.03,SW,233,3.0,4.0,89,-99.99,,,-99.99,,2013-06-13 05:24:00,
2013-06-13 01:33:00,73.0,70.0,30.03,SW,233,3.0,4.0,89,-99.99,,,-99.99,,2013-06-13 05:33:00,
2013-06-13 01:43:00,73.0,70.0,30.02,SSW,201,4.0,6.0,90,-99.99,,,-99.99,,2013-06-13 05:43:00,
2013-06-13 01:53:00,73.0,70.0,30.02,SSW,196,6.0,8.0,90,-99.99,,,-99.99,,2013-06-13 05:53:00,
2013-06-13 02:02:00,73.0,70.0,30.02,SSW,196,6.0,8.0,90,-99.99,,,-99.99,,2013-06-13 06:02:00,
2013-06-13 02:11:00,73.0,70.0,30.02,SW,214,4.0,6.0,89,-99.99,,,-99.99,,2013-06-13 06:11:00,
2013-06-13 02:22:00,73.0,70.0,30.02,SW,214,4.0,6.0,89,-99.99,,,-99.99,,2013-06-13 06:22:00,
2013-06-13 02:33:00,73.0,70.0,30.02,SW,214,4.0,6.0,89,-99.99,,,-99.99,,2013-06-13 06:33:00,
2013-06-13 02:44:00,73.0,70.0,30.01,SW,224,4.0,7.0,90,-99.99,,,-99.99,,2013-06-13 06:44:00,
2013-06-13 02:52:00,72.0,70.0,29.99,SSW,194,4.0,6.0,91,-99.99,,,-99.99,,2013-06-13 06:52:00,
2013-06-13 03:01:00,72.0,70.0,29.99,SSW,194,4.0,6.0,91,-99.99,,,-99.99,,2013-06-13 07:01:00,
2013-06-13 03:12:00,73.0,71.0,29.99,South,190,5.0,6.0,92,-99.99,,,-99.99,,2013-06-13 07:12:00,
2013-06-13 03:22:00,73.0,71.0,29.99,South,190,5.0,6.0,92,-99.99,,,-99.99,,2013-06-13 07:22:00,
2013-06-13 03:33:00,73.0,71.0,29.99,South,190,5.0,6.0,92,-99.99,,,-99.99,,2013-06-13 07:33:00,
2013-06-13 03:42:00,73.0,71.0,29.99,SSW,195,5.0,8.0,93,-99.99,,,-99.99,,2013-06-13 07:42:00,
2013-06-13 03:52:00,72.0,70.0,29.98,South,180,5.0,6.0,92,-99.99,,,-99.99,,2013-06-13 07:52:00,
2013-06-13 04:01:00,72.0,70.0,29.98,South,180,5.0,6.0,92,-99.99,,,-99.99,,2013-06-13 08:01:00,
2013-06-13 04:11:00,73.0,70.0,29.98,South,191,4.0,7.0,93,-99.99,,,-99.99,,2013-06-13 08:11:00,
2013-06-13 04:22:00,73.0,70.0,29.98,South,191,4.0,7.0,93,-99.99,,,-99.99,,2013-06-13 08:22:00,
2013-06-13 04:32:00,73.0,70.0,29.98,South,191,4.0,7.0,93,-99.99,,,-99.99,,2013-06-13 08:32:00,
2013-06-13 04:43:00,73.0,70.0,29.99,SSE,164,2.0,3.0,93,-99.99,,,-99.99,,2013-06-13 08:43:00,
2013-06-13 04:52:00,72.0,70.0,29.99,SW,235,1.0,2.0,93,-99.99,,,-99.99,,2013-06-13 08:52:00,
2013-06-13 05:02:00,72.0,70.0,29.99,SW,235,1.0,2.0,93,-99.99,,,-99.99,,2013-06-13 09:02:00,
2013-06-13 05:12:00,72.0,71.0,29.99,WSW,255,2.0,4.0,93,-99.99,,,-99.99,,2013-06-13 09:12:00,
2013-06-13 05:22:00,72.0,71.0,29.99,WSW,255,2.0,4.0,93,-99.99,,,-99.99,,2013-06-13 09:22:00,
2013-06-13 05:32:00,72.0,71.0,29.99,WSW,255,2.0,4.0,93,-99.99,,,-99.99,,2013-06-13 09:32:00,
2013-06-13 05:42:00,72.0,70.0,29.99,SW,225,3.0,4.0,94,-99.99,,,-99.99,,2013-06-13 09:42:00,
2013-06-13 05:52:00,71.0,70.0,29.99,WSW,253,2.0,4.0,94,-99.99,,,-99.99,,2013-06-13 09:52:00,
2013-06-13 06:01:00,71.0,70.0,29.99,WSW,253,2.0,4.0,94,-99.99,,,-99.99,,2013-06-13 10:01:00,
2013-06-13 06:12:00,72.0,70.0,29.98,WSW,251,2.0,4.0,94,-99.99,,,-99.99,,2013-06-13 10:12:00,
2013-06-13 06:22:00,72.0,70.0,29.98,WSW,251,2.0,4.0,94,-99.99,,,-99.99,,2013-06-13 10:22:00,
2013-06-13 06:33:00,72.0,70.0,29.98,WSW,251,2.0,4.0,94,-99.99,,,-99.99,,2013-06-13 10:33:00,
2013-06-13 06:43:00,71.0,69.0,29.99,WSW,244,3.0,5.0,93,-99.99,,,-99.99,,2013-06-13 10:43:00,
2013-06-13 06:53:00,71.0,69.0,30.00,SW,235,5.0,9.0,93,-99.99,,,-99.99,,2013-06-13 10:53:00,
2013-06-13 07:02:00,71.0,69.0,30.00,SW,235,5.0,9.0,93,-99.99,,,-99.99,,2013-06-13 11:02:00,
2013-06-13 07:12:00,71.0,69.0,30.00,SW,233,4.0,6.0,92,-99.99,,,-99.99,,2013-06-13 11:12:00,
2013-06-13 07:24:00,71.0,69.0,30.00,SW,233,4.0,6.0,92,-99.99,,,-99.99,,2013-06-13 11:24:00,
2013-06-13 07:32:00,71.0,69.0,30.00,SW,233,4.0,6.0,92,-99.99,,,-99.99,,2013-06-13 11:32:00,
2013-06-13 07:42:00,71.0,68.0,30.00,SW,224,4.0,7.0,92,-99.99,,,-99.99,,2013-06-13 11:42:00,
2013-06-13 07:52:00,72.0,69.0,30.00,SSW,205,5.0,7.0,91,-99.99,,,-99.99,,2013-06-13 11:52:00,
2013-06-13 08:01:00,71.0,69.0,30.00,SSW,198,4.0,7.0,90,-99.99,,,-99.99,,2013-06-13 12:01:00,
2013-06-13 08:12:00,71.0,69.0,30.00,SSW,198,4.0,7.0,90,-99.99,,,-99.99,,2013-06-13 12:12:00,
2013-06-13 08:22:00,72.0,69.0,30.01,SW,231,4.0,5.0,88,-99.99,,,-99.99,,2013-06-13 12:22:00,
2013-06-13 08:35:00,72.0,69.0,30.01,SW,231,4.0,5.0,88,-99.99,,,-99.99,,2013-06-13 12:35:00,
2013-06-13 08:43:00,75.0,70.0,30.01,SW,234,5.0,8.0,86,-99.99,,,-99.99,,2013-06-13 12:43:00,
2013-06-13 08:52:00,75.0,70.0,30.01,SW,234,5.0,8.0,86,-99.99,,,-99.99,,2013-06-13 12:52:00,
2013-06-13 09:02:00,75.0,71.0,30.02,WSW,241,5.0,10.0,86,-99.99,,,-99.99,,2013-06-13 13:02:00,
2013-06-13 09:11:00,75.0,71.0,30.02,WSW,241,5.0,10.0,86,-99.99,,,-99.99,,2013-06-13 13:11:00,
2013-06-13 09:22:00,76.0,71.0,30.02,West,267,5.0,8.0,85,-99.99,,,-99.99,,2013-06-13 13:22:00,
2013-06-13 09:33:00,78.0,73.0,30.02,West,276,5.0,8.0,84,-99.99,,,-99.99,,2013-06-13 13:33:00,
2013-06-13 09:43:00,78.0,73.0,30.02,West,276,5.0,8.0,84,-99.99,,,-99.99,,2013-06-13 13:43:00,
2013-06-13 09:53:00,78.0,73.0,30.02,West,276,5.0,8.0,84,-99.99,,,-99.99,,2013-06-13 13:53:00,
2013-06-13 10:02:00,78.0,73.0,30.02,West,276,5.0,8.0,84,-99.99,,,-99.99,,2013-06-13 14:02:00,
2013-06-13 10:11:00,78.0,73.0,30.02,West,276,5.0,8.0,84,-99.99,,,-99.99,,2013-06-13 14:11:00,
2013-06-13 10:43:00,81.0,75.0,30.02,WNW,288,6.0,9.0,81,-99.99,,,-99.99,,2013-06-13 14:43:00,
2013-06-13 10:53:00,81.0,75.0,30.02,WNW,288,6.0,9.0,81,-99.99,,,-99.99,,2013-06-13 14:53:00,
2013-06-13 11:02:00,81.0,75.0,30.02,WNW,288,6.0,9.0,81,-99.99,,,-99.99,,2013-06-13 15:02:00,
2013-06-13 11:12:00,81.0,75.0,30.01,WNW,286,6.0,9.0,79,-99.99,,,-99.99,,2013-06-13 15:12:00,
2013-06-13 11:22:00,82.0,74.0,30.01,SSE,155,4.0,8.0,76,-99.99,,,-99.99,,2013-06-13 15:22:00,
2013-06-13 11:33:00,82.0,74.0,30.01,SSE,155,4.0,8.0,76,-99.99,,,-99.99,,2013-06-13 15:33:00,
2013-06-13 11:43:00,82.0,74.0,30.01,SSE,155,4.0,8.0,76,-99.99,,,-99.99,,2013-06-13 15:43:00,
2013-06-13 11:53:00,83.0,75.0,30.01,NNE,28,4.0,7.0,75,-99.99,,,-99.99,,2013-06-13 15:53:00,
2013-06-13 12:02:00,83.0,74.0,30.01,NE,45,5.0,7.0,74,-99.99,,,-99.99,,2013-06-13 16:02:00,
2013-06-13 12:12:00,83.0,74.0,30.01,NE,45,5.0,7.0,74,-99.99,,,-99.99,,2013-06-13 16:12:00,
2013-06-13 12:22:00,83.0,74.0,30.01,NE,40,4.0,6.0,73,-99.99,,,-99.99,,2013-06-13 16:22:00,
2013-06-13 12:33:00,84.0,74.0,30.00,NNE,28,5.0,6.0,72,-99.99,,,-99.99,,2013-06-13 16:33:00,
2013-06-13 12:43:00,84.0,75.0,30.00,NNE,33,5.0,7.0,72,-99.99,,,-99.99,,2013-06-13 16:43:00,
2013-06-13 12:54:00,84.0,75.0,30.00,NNE,33,5.0,7.0,72,-99.99,,,-99.99,,2013-06-13 16:54:00,
2013-06-13 13:02:00,85.0,75.0,30.00,NNE,27,5.0,7.0,71,-99.99,,,-99.99,,2013-06-13 17:02:00,
2013-06-13 13:12:00,85.0,75.0,30.00,NNE,27,5.0,7.0,71,-99.99,,,-99.99,,2013-06-13 17:12:00,
2013-06-13 13:24:00,85.0,75.0,30.00,NNE,27,5.0,7.0,71,-99.99,,,-99.99,,2013-06-13 17:24:00,
2013-06-13 13:33:00,86.0,75.0,29.98,NE,38,5.0,8.0,68,-99.99,,,-99.99,,2013-06-13 17:33:00,
2013-06-13 13:43:00,86.0,74.0,29.98,NNE,25,4.0,6.0,66,-99.99,,,-99.99,,2013-06-13 17:43:00,
2013-06-13 13:53:00,86.0,74.0,29.98,NNE,25,4.0,6.0,66,-99.99,,,-99.99,,2013-06-13 17:53:00,
2013-06-13 14:02:00,86.0,74.0,29.98,NNE,25,4.0,6.0,66,-99.99,,,-99.99,,2013-06-13 18:02:00,
2013-06-13 14:11:00,87.0,75.0,29.98,NNE,25,3.0,5.0,66,-99.99,,,-99.99,,2013-06-13 18:11:00,
2013-06-13 14:22:00,87.0,74.0,29.97,WSW,253,4.0,6.0,64,-99.99,,,-99.99,,2013-06-13 18:22:00,
2013-06-13 14:33:00,87.0,74.0,29.97,WSW,253,4.0,6.0,64,-99.99,,,-99.99,,2013-06-13 18:33:00,
2013-06-13 14:52:00,85.0,71.0,29.95,South,172,6.0,10.0,62,-99.99,,,-99.99,,2013-06-13 18:52:00,
2013-06-13 15:02:00,85.0,71.0,29.95,South,172,6.0,10.0,62,-99.99,,,-99.99,,2013-06-13 19:02:00,
2013-06-13 15:11:00,85.0,71.0,29.95,South,174,9.0,15.0,63,-99.99,,,-99.99,,2013-06-13 19:11:00,
2013-06-13 15:33:00,85.0,71.0,29.94,South,179,9.0,13.0,61,-99.99,,,-99.99,,2013-06-13 19:33:00,
2013-06-13 15:43:00,87.0,72.0,29.93,South,173,6.0,10.0,59,-99.99,,,-99.99,,2013-06-13 19:43:00,
2013-06-13 15:53:00,87.0,72.0,29.93,South,173,6.0,10.0,59,-99.99,,,-99.99,,2013-06-13 19:53:00,
2013-06-13 16:02:00,87.0,72.0,29.93,South,173,6.0,10.0,59,-99.99,,,-99.99,,2013-06-13 20:02:00,
2013-06-13 16:11:00,88.0,71.0,29.92,West,265,2.0,5.0,57,-99.99,,,-99.99,,2013-06-13 20:11:00,
2013-06-13 16:22:00,88.0,71.0,29.92,SSW,206,2.0,3.0,56,-99.99,,,-99.99,,2013-06-13 20:22:00,
2013-06-13 16:33:00,89.0,72.0,29.90,SSE,163,1.0,3.0,57,-99.99,,,-99.99,,2013-06-13 20:33:00,
2013-06-13 16:44:00,89.0,72.0,29.90,SSE,163,1.0,3.0,57,-99.99,,,-99.99,,2013-06-13 20:44:00,
2013-06-13 16:53:00,89.0,72.0,29.90,South,190,3.0,5.0,56,-99.99,,,-99.99,,2013-06-13 20:53:00,
2013-06-13 17:02:00,88.0,71.0,29.90,WNW,292,3.0,6.0,56,-99.99,,,-99.99,,2013-06-13 21:02:00,
2013-06-13 17:11:00,88.0,71.0,29.90,WNW,292,3.0,6.0,56,-99.99,,,-99.99,,2013-06-13 21:11:00,
2013-06-13 17:22:00,90.0,72.0,29.90,WSW,246,4.0,9.0,55,-99.99,,,-99.99,,2013-06-13 21:22:00,
2013-06-13 17:34:00,90.0,72.0,29.90,WSW,246,4.0,9.0,55,-99.99,,,-99.99,,2013-06-13 21:34:00,
2013-06-13 17:43:00,88.0,73.0,29.89,South,179,8.0,15.0,61,-99.99,,,-99.99,,2013-06-13 21:43:00,
2013-06-13 17:52:00,88.0,73.0,29.89,South,179,8.0,15.0,61,-99.99,,,-99.99,,2013-06-13 21:52:00,
2013-06-13 18:02:00,88.0,73.0,29.89,South,179,8.0,15.0,61,-99.99,,,-99.99,,2013-06-13 22:02:00,
2013-06-13 18:11:00,83.0,71.0,29.90,SSW,196,16.0,26.0,68,-99.99,,,-99.99,,2013-06-13 22:11:00,
2013-06-13 18:22:00,81.0,71.0,29.91,South,191,12.0,18.0,70,-99.99,,,-99.99,,2013-06-13 22:22:00,
2013-06-13 18:33:00,81.0,71.0,29.91,South,191,12.0,18.0,70,-99.99,,,-99.99,,2013-06-13 22:33:00,
2013-06-13 18:43:00,80.0,70.0,29.90,SW,220,8.0,15.0,70,-99.99,,,-99.99,,2013-06-13 22:43:00,
2013-06-13 18:52:00,80.0,70.0,29.90,SW,218,9.0,19.0,71,-99.99,,,-99.99,,2013-06-13 22:52:00,
2013-06-13 19:02:00,80.0,70.0,29.90,SW,218,9.0,19.0,71,-99.99,,,-99.99,,2013-06-13 23:02:00,
2013-06-13 19:11:00,79.0,71.0,29.91,West,266,8.0,13.0,76,-99.99,,,-99.99,,2013-06-13 23:11:00,
2013-06-13 19:22:00,77.0,71.0,29.90,West,269,7.0,13.0,79,-99.99,,,-99.99,,2013-06-13 23:22:00,
2013-06-13 19:32:00,77.0,71.0,29.90,West,269,7.0,13.0,79,-99.99,,,-99.99,,2013-06-13 23:32:00,
2013-06-13 19:43:00,79.0,71.0,29.89,SW,227,7.0,12.0,75,-99.99,,,-99.99,,2013-06-13 23:43:00,
2013-06-13 19:52:00,79.0,71.0,29.89,SW,227,7.0,12.0,75,-99.99,,,-99.99,,2013-06-13 23:52:00,
2013-06-13 20:01:00,80.0,71.0,29.89,SW,217,5.0,10.0,73,-99.99,,,-99.99,,2013-06-14 00:01:00,
2013-06-13 20:12:00,81.0,71.0,29.89,SW,218,6.0,11.0,71,-99.99,,,-99.99,,2013-06-14 00:12:00,
2013-06-13 20:22:00,81.0,71.0,29.89,SW,218,6.0,11.0,71,-99.99,,,-99.99,,2013-06-14 00:22:00,
2013-06-13 20:34:00,81.0,71.0,29.89,SSW,206,6.0,10.0,71,-99.99,,,-99.99,,2013-06-14 00:34:00,
2013-06-13 20:43:00,80.0,71.0,29.89,SW,214,5.0,10.0,72,-99.99,,,-99.99,,2013-06-14 00:43:00,
2013-06-13 20:53:00,79.0,71.0,29.89,SSW,193,6.0,8.0,75,-99.99,,,-99.99,,2013-06-14 00:53:00,
2013-06-13 21:01:00,79.0,71.0,29.89,SSW,193,6.0,8.0,75,-99.99,,,-99.99,,2013-06-14 01:01:00,
2013-06-13 21:11:00,78.0,71.0,29.89,SSW,201,4.0,6.0,79,-99.99,,,-99.99,,2013-06-14 01:11:00,
2013-06-13 21:22:00,78.0,71.0,29.89,SSW,201,4.0,6.0,79,-99.99,,,-99.99,,2013-06-14 01:22:00,
2013-06-13 21:32:00,78.0,71.0,29.90,SSW,203,5.0,6.0,79,-99.99,,,-99.99,,2013-06-14 01:32:00,
2013-06-13 21:43:00,78.0,71.0,29.90,SSW,203,5.0,6.0,79,-99.99,,,-99.99,,2013-06-14 01:43:00,
2013-06-13 21:53:00,76.0,71.0,29.90,SSW,192,6.0,8.0,84,-99.99,,,-99.99,,2013-06-14 01:53:00,
2013-06-13 22:02:00,76.0,71.0,29.90,SSW,192,6.0,8.0,84,-99.99,,,-99.99,,2013-06-14 02:02:00,
2013-06-13 22:11:00,76.0,71.0,29.90,SSW,198,5.0,8.0,86,-99.99,,,-99.99,,2013-06-14 02:11:00,
2013-06-13 22:22:00,76.0,71.0,29.90,SSW,198,5.0,8.0,86,-99.99,,,-99.99,,2013-06-14 02:22:00,
2013-06-13 22:32:00,76.0,71.0,29.90,SSW,198,5.0,8.0,86,-99.99,,,-99.99,,2013-06-14 02:32:00,
2013-06-13 22:43:00,76.0,71.0,29.90,SSW,198,5.0,8.0,86,-99.99,,,-99.99,,2013-06-14 02:43:00,
2013-06-13 22:53:00,75.0,71.0,29.91,SSW,207,5.0,6.0,87,-99.99,,,-99.99,,2013-06-14 02:53:00,
2013-06-13 23:02:00,75.0,71.0,29.91,SSW,207,5.0,6.0,87,-99.99,,,-99.99,,2013-06-14 03:02:00,
2013-06-13 23:12:00,75.0,71.0,29.91,SSW,207,4.0,6.0,88,-99.99,,,-99.99,,2013-06-14 03:12:00,
2013-06-13 23:22:00,75.0,71.0,29.91,SSW,207,4.0,6.0,88,-99.99,,,-99.99,,2013-06-14 03:22:00,
2013-06-13 23:34:00,75.0,71.0,29.91,SSW,207,4.0,6.0,88,-99.99,,,-99.99,,2013-06-14 03:34:00,
2013-06-13 23:43:00,74.0,71.0,29.93,SSW,209,4.0,6.0,89,-99.99,,,-99.99,,2013-06-14 03:43:00,
2013-06-13 23:53:00,73.0,70.0,29.93,SSE,160,4.0,7.0,90,-99.99,,,-99.99,,2013-06-14 03:53:00,